Camiguin Airport


Codes: RPMH/CGM
Name: Camiguin Airport
City:
Country: Philippines
Elevation: 53 ft.
Wikipedia:

Photos at Camiguin Airport


   Photos courtesy of SpottingLog. You can add your own sightings and photos by signing up for a free trial today.



No photos found.

Weather at Camiguin Airport


Time (UTC)DescriptionTempratureWindCloud coverageVisibilityPressureHumidity
15-Apr-2024 15:00Light Rain27°C13 mph, NE61%10000m1012hPa89%
15-Apr-2024 18:00Broken Clouds27°C11 mph, NE66%10000m1012hPa88%
15-Apr-2024 21:00Light Rain27°C11 mph, E87%10000m1011hPa87%
16-Apr-2024 00:00Light Rain27°C11 mph, E100%10000m1012hPa81%
16-Apr-2024 03:00Overcast Clouds29°C11 mph, NE100%10000m1011hPa73%
16-Apr-2024 06:00Broken Clouds29°C13 mph, NE55%10000m1008hPa74%
16-Apr-2024 09:00Broken Clouds29°C16 mph, NE75%10000m1008hPa82%
16-Apr-2024 12:00Light Rain28°C18 mph, NE87%10000m1010hPa87%
16-Apr-2024 15:00Light Rain27°C16 mph, NE100%10000m1010hPa87%
16-Apr-2024 18:00Light Rain27°C11 mph, E100%10000m1009hPa87%
16-Apr-2024 21:00Light Rain27°C13 mph, E100%10000m1009hPa86%
17-Apr-2024 00:00Overcast Clouds27°C9 mph, E100%10000m1011hPa82%
17-Apr-2024 03:00Overcast Clouds28°C9 mph, NE100%10000m1010hPa76%
17-Apr-2024 06:00Overcast Clouds29°C11 mph, NE99%10000m1008hPa73%
17-Apr-2024 09:00Overcast Clouds28°C11 mph, NE100%10000m1008hPa82%
17-Apr-2024 12:00Overcast Clouds27°C9 mph, E100%10000m1010hPa86%
17-Apr-2024 15:00Overcast Clouds27°C7 mph, E100%10000m1010hPa88%
17-Apr-2024 18:00Overcast Clouds27°C9 mph, E96%10000m1008hPa85%
17-Apr-2024 21:00Overcast Clouds26°C9 mph, E95%10000m1009hPa83%
18-Apr-2024 00:00Overcast Clouds28°C7 mph, E96%10000m1011hPa74%
18-Apr-2024 03:00Overcast Clouds29°C7 mph, NE89%10000m1010hPa73%
18-Apr-2024 06:00Overcast Clouds30°C13 mph, NE85%10000m1007hPa72%
18-Apr-2024 09:00Few Clouds29°C13 mph, NE22%10000m1007hPa73%
18-Apr-2024 12:00Scattered Clouds28°C13 mph, NE30%10000m1009hPa86%
18-Apr-2024 15:00Broken Clouds27°C9 mph, NE69%10000m1010hPa84%
18-Apr-2024 18:00Broken Clouds27°C9 mph, E52%10000m1008hPa82%
18-Apr-2024 21:00Few Clouds26°C7 mph, E17%10000m1009hPa82%
19-Apr-2024 00:00Scattered Clouds28°C9 mph, E33%10000m1011hPa71%
19-Apr-2024 03:00Overcast Clouds29°C9 mph, NE100%10000m1010hPa64%
19-Apr-2024 06:00Overcast Clouds30°C11 mph, NE100%10000m1007hPa69%
19-Apr-2024 09:00Broken Clouds29°C16 mph, NE56%10000m1007hPa75%
19-Apr-2024 12:00Scattered Clouds28°C16 mph, NE37%10000m1010hPa85%
19-Apr-2024 15:00Scattered Clouds27°C13 mph, NE32%10000m1010hPa84%
19-Apr-2024 18:00Broken Clouds26°C11 mph, E65%10000m1009hPa80%
19-Apr-2024 21:00Few Clouds26°C11 mph, E23%10000m1010hPa81%
20-Apr-2024 00:00Scattered Clouds28°C11 mph, E44%10000m1011hPa70%
20-Apr-2024 03:00Overcast Clouds29°C11 mph, NE100%10000m1010hPa64%
20-Apr-2024 06:00Broken Clouds29°C13 mph, NE84%10000m1008hPa69%
20-Apr-2024 09:00Scattered Clouds29°C18 mph, NE32%10000m1008hPa75%
20-Apr-2024 12:00Few Clouds28°C16 mph, NE19%10000m1010hPa82%